Вернуться в каталог

SOLRAD 7B

АктивенНаукаLEO
NORAD 1291·PAYLOAD·🇺🇸 United States

Запущен Mar 9, 1965 с Vandenberg Space Force Base

Loading…

Ближайшие Пролёты (ближайшие 24 часа)

TLE

СвежийSource: Space-Track

Эпоха: Sep 13, 2026, 19:25 UTC

1 01291U 65016D   26256.80966688 -.00000033  00000-0  14285-4 0  9994
2 01291  70.0794  47.8483 0021111 357.5087   2.5910 13.94984320129065

Отслеживайте SOLRAD 7B в реальном времени с AllMySat

Download on the App Store